TimePDT,TemperatureF,Dew PointF,Humidity,Sea Level PressureIn,VisibilityMPH,Wind Direction,Wind SpeedMPH,Gust SpeedMPH,PrecipitationIn,Events,Conditions,WindDirDegrees,DateUTC
12:53 AM,63.0,39.0,41,30.06,10.0,ENE,4.6,-,N/A,,Clear,60,2014-04-08 07:53:00
1:53 AM,63.0,39.9,43,30.05,10.0,ENE,5.8,-,N/A,,Clear,60,2014-04-08 08:53:00
2:53 AM,60.1,39.9,47,30.05,10.0,East,4.6,-,N/A,,Clear,100,2014-04-08 09:53:00
3:53 AM,57.9,39.9,51,30.05,10.0,East,4.6,-,N/A,,Clear,80,2014-04-08 10:53:00
4:53 AM,57.0,39.9,53,30.05,10.0,ENE,4.6,-,N/A,,Clear,70,2014-04-08 11:53:00
5:53 AM,57.9,39.9,51,30.05,10.0,NE,4.6,-,N/A,,Clear,50,2014-04-08 12:53:00
6:53 AM,59.0,39.0,48,30.07,10.0,NE,5.8,-,N/A,,Clear,50,2014-04-08 13:53:00
7:53 AM,63.0,39.0,41,30.09,10.0,NE,5.8,-,N/A,,Clear,50,2014-04-08 14:53:00
8:53 AM,70.0,37.9,31,30.09,10.0,ENE,4.6,-,N/A,,Clear,60,2014-04-08 15:53:00
9:53 AM,77.0,37.9,24,30.08,10.0,ENE,3.5,-,N/A,,Clear,70,2014-04-08 16:53:00
10:53 AM,82.0,33.1,17,30.07,10.0,Calm,Calm,-,N/A,,Scattered Clouds,0,2014-04-08 17:53:00
11:53 AM,86.0,28.0,12,30.06,10.0,Calm,Calm,-,N/A,,Scattered Clouds,0,2014-04-08 18:53:00
12:53 PM,90.0,24.1,9,30.03,10.0,WSW,3.5,-,N/A,,Mostly Cloudy,240,2014-04-08 19:53:00
1:53 PM,91.9,26.1,9,30.01,10.0,North,-9999.0,-,N/A,,Mostly Cloudy,0,2014-04-08 20:53:00
2:53 PM,91.9,24.1,9,29.99,10.0,Variable,5.8,-,N/A,,Mostly Cloudy,0,2014-04-08 21:53:00
3:53 PM,93.0,21.0,7,29.96,10.0,Variable,6.9,-,N/A,,Mostly Cloudy,0,2014-04-08 22:53:00
4:53 PM,93.0,17.1,6,29.96,10.0,West,8.1,-,N/A,,Mostly Cloudy,270,2014-04-08 23:53:00
5:53 PM,90.0,24.1,9,29.95,10.0,West,10.4,-,N/A,,Mostly Cloudy,270,2014-04-09 00:53:00
6:53 PM,86.0,24.1,10,29.95,10.0,WSW,8.1,-,N/A,,Mostly Cloudy,250,2014-04-09 01:53:00
7:53 PM,82.0,32.0,16,29.97,10.0,West,8.1,-,N/A,,Clear,260,2014-04-09 02:53:00
8:53 PM,77.0,32.0,19,29.99,10.0,West,5.8,-,N/A,,Clear,280,2014-04-09 03:53:00
9:53 PM,77.0,30.9,19,30.00,10.0,SW,5.8,-,N/A,,Clear,230,2014-04-09 04:53:00
10:53 PM,70.0,36.0,29,30.00,10.0,East,3.5,-,N/A,,Clear,90,2014-04-09 05:53:00
11:53 PM,68.0,36.0,31,30.01,10.0,East,3.5,-,N/A,,Clear,100,2014-04-09 06:53:00